Weather History for Caldwell, ID

Change the Weather History Date:

Monday, February 18, 2013

  Actual Average (KBOI) Record (KBOI)
Temperature  
Mean Temperature 35 °F 37 °F  
Max Temperature 46 °F 46 °F 65 °F (1958)
Min Temperature 24 °F 29 °F 0 °F (1882)
Degree Days  
Heating Degree Days 30 28  
Month to date heating degree days 537  
Since 1 July heating degree days 3898  
Cooling Degree Days 0 0  
Month to date cooling degree days 0  
Year to date cooling degree days 0  
Moisture  
Dew Point 18 °F    
Average Humidity 51    
Maximum Humidity 74    
Minimum Humidity 29    
Precipitation  
Precipitation 0.00 in 0.03 in 0.58 in (1915)
Month to date precipitation 0.62  
Year to date precipitation 1.86  
Snow  
Snow 0.00 in 0.10 in 3.40 in (1910)
Month to date snowfall 2.1  
Since 1 July snowfall 16.9  
Snow Depth -    
Sea Level Pressure  
Sea Level Pressure 29.98 in    
Wind  
Wind Speed 9 mph (SE)    
Max Wind Speed 24 mph    
Max Gust Speed 30 mph    
Visibility 10 miles    
Events      
T = Trace of Precipitation, MM = Missing Value Source: NWS Daily Summary

Daily Weather History Graph

Daily Weather History Graph

Search for Another Location

Airport:

Trip Planner

Search our weather history database for the weather conditions in past years. The results will help you decide how hot, cold, wet, or windy it might be!

Date:

Astronomy

Feb. 18, 2013 Rise Set
Actual Time 7:40 AM MST 6:21 PM MST
Civil Twilight 7:10 AM MST 6:50 PM MST
Nautical Twilight 6:37 AM MST 7:24 PM MST
Astronomical Twilight 6:04 AM MST 7:57 PM MST
Moon 12:05 PM MST (2/18) 2:29 AM MST (2/18)
Length of Visible Light 11h 39m
Length of Day
10h 41m
First Quarter, 59% of the Moon is Illuminated
Feb 18
First Quarter
Feb 25
Full
Mar 4
Last Quarter
Mar 11
New
Mar 19
First Quarter

Hourly Weather History & Observations

Time (MST) Temp. Windchill Dew Point Humidity Pressure Visibility Wind Dir Wind Speed Gust Speed Precip Events Conditions
12:15 AM 26.6 °F 21.2 °F 17.6 °F 69% 30.11 in 10.0 mi ESE 4.6 mph - N/A   Clear
12:35 AM 26.6 °F 22.6 °F 17.6 °F 69% 30.11 in 10.0 mi East 3.5 mph - N/A   Clear
12:55 AM 26.6 °F 21.2 °F 17.6 °F 69% 30.10 in 10.0 mi ESE 4.6 mph - N/A   Clear
1:15 AM 24.8 °F 16.9 °F 17.6 °F 74% 30.10 in 10.0 mi East 6.9 mph - N/A   Clear
1:35 AM 26.6 °F 21.2 °F 15.8 °F 64% 30.10 in 10.0 mi ESE 4.6 mph - N/A   Clear
1:55 AM 24.8 °F 16.9 °F 15.8 °F 69% 30.11 in 10.0 mi ESE 6.9 mph - N/A   Clear
2:15 AM 24.8 °F 20.5 °F 15.8 °F 69% 30.11 in 10.0 mi East 3.5 mph - N/A   Clear
2:35 AM 24.8 °F 19.1 °F 15.8 °F 69% 30.11 in 10.0 mi East 4.6 mph - N/A   Clear
2:55 AM 24.8 °F 20.5 °F 15.8 °F 69% 30.11 in 10.0 mi ESE 3.5 mph - N/A   Clear
3:15 AM 24.8 °F 19.1 °F 15.8 °F 69% 30.11 in 10.0 mi ESE 4.6 mph - N/A   Clear
3:35 AM 24.8 °F - 15.8 °F 69% 30.10 in 10.0 mi Calm Calm - N/A   Clear
3:55 AM 24.8 °F 19.1 °F 15.8 °F 69% 30.10 in 10.0 mi ESE 4.6 mph - N/A   Clear
4:15 AM 24.8 °F 16.9 °F 15.8 °F 69% 30.09 in 10.0 mi East 6.9 mph - N/A   Clear
4:35 AM 24.8 °F 16.9 °F 15.8 °F 69% 30.08 in 10.0 mi East 6.9 mph - N/A   Clear
4:55 AM 24.8 °F 20.5 °F 15.8 °F 69% 30.08 in 10.0 mi East 3.5 mph - N/A   Clear
5:15 AM 24.8 °F 20.5 °F 15.8 °F 69% 30.08 in 10.0 mi East 3.5 mph - N/A   Clear
5:35 AM 24.8 °F 19.1 °F 15.8 °F 69% 30.08 in 10.0 mi East 4.6 mph - N/A   Clear
5:55 AM 24.8 °F 20.5 °F 15.8 °F 69% 30.08 in 10.0 mi SE 3.5 mph - N/A   Clear
6:15 AM 24.8 °F 17.9 °F 15.8 °F 69% 30.08 in 10.0 mi SSE 5.8 mph - N/A   Clear
6:35 AM 24.8 °F 16.9 °F 15.8 °F 69% 30.07 in 10.0 mi SE 6.9 mph - N/A   Clear
6:55 AM 26.6 °F 20.0 °F 15.8 °F 64% 30.07 in 10.0 mi SE 5.8 mph - N/A   Clear
7:15 AM 26.6 °F 22.6 °F 17.6 °F 69% 30.07 in 10.0 mi ESE 3.5 mph - N/A   Clear
7:35 AM 24.8 °F 20.5 °F 17.6 °F 74% 30.07 in 10.0 mi ESE 3.5 mph - N/A   Clear
7:55 AM 26.6 °F 22.6 °F 17.6 °F 69% 30.07 in 10.0 mi ESE 3.5 mph - N/A   Clear
8:15 AM 26.6 °F - 17.6 °F 69% 30.08 in 10.0 mi Calm Calm - N/A   Clear
8:35 AM 26.6 °F - 19.4 °F 74% 30.08 in 10.0 mi Calm Calm - N/A   Clear
8:55 AM 28.4 °F 22.2 °F 19.4 °F 69% 30.07 in 10.0 mi SE 5.8 mph - N/A   Clear
9:15 AM 30.2 °F 23.4 °F 19.4 °F 64% 30.07 in 10.0 mi SE 6.9 mph - N/A   Clear
9:35 AM 32.0 °F 24.2 °F 19.4 °F 60% 30.07 in 10.0 mi SSE 9.2 mph - N/A   Clear
9:55 AM 33.8 °F 23.9 °F 19.4 °F 56% 30.07 in 10.0 mi SSE 15.0 mph 19.6 mph N/A   Clear
10:15 AM 33.8 °F 27.7 °F 21.2 °F 60% 30.06 in 10.0 mi South 6.9 mph - N/A   Clear
10:35 AM 33.8 °F 25.8 °F 21.2 °F 60% 30.06 in 10.0 mi SSE 10.4 mph - N/A   Clear
10:55 AM 37.4 °F 27.8 °F 21.2 °F 52% 30.05 in 10.0 mi SE 17.3 mph 21.9 mph N/A   Clear
11:15 AM 39.2 °F 29.6 °F 21.2 °F 49% 30.04 in 10.0 mi SE 19.6 mph 27.6 mph N/A   Clear
11:35 AM 41.0 °F 31.6 °F 21.2 °F 45% 30.04 in 10.0 mi SE 20.7 mph 25.3 mph N/A   Clear
11:55 AM 42.8 °F 33.8 °F 21.2 °F 42% 30.03 in 10.0 mi SSE 21.9 mph 25.3 mph N/A   Clear
12:15 PM 42.8 °F 34.5 °F 21.2 °F 42% 30.02 in 10.0 mi SE 18.4 mph 25.3 mph N/A   Clear
12:35 PM 44.6 °F 36.9 °F 23.0 °F 43% 30.01 in 10.0 mi SE 18.4 mph 23.0 mph N/A   Clear
12:55 PM 44.6 °F 36.4 °F 19.4 °F 37% 30.00 in 10.0 mi SE 20.7 mph 29.9 mph N/A   Clear
1:15 PM 44.6 °F 36.1 °F 19.4 °F 37% 29.99 in 10.0 mi SSE 21.9 mph 26.5 mph N/A   Clear
1:35 PM 46.4 °F 38.7 °F 19.4 °F 34% 29.98 in 10.0 mi SSE 20.7 mph 26.5 mph N/A   Clear
1:55 PM 46.4 °F 38.7 °F 19.4 °F 34% 29.96 in 10.0 mi SSE 20.7 mph 27.6 mph N/A   Clear
2:15 PM 46.4 °F 39.0 °F 19.4 °F 34% 29.95 in 10.0 mi SE 19.6 mph 26.5 mph N/A   Scattered Clouds
2:35 PM 46.4 °F 39.2 °F 19.4 °F 34% 29.94 in 10.0 mi SE 18.4 mph 27.6 mph N/A   Scattered Clouds
2:55 PM 46.4 °F 38.3 °F 19.4 °F 34% 29.93 in 10.0 mi SE 23.0 mph 26.5 mph N/A   Partly Cloudy
3:15 PM 46.4 °F 38.7 °F 17.6 °F 32% 29.92 in 10.0 mi SSE 20.7 mph 26.5 mph N/A   Mostly Cloudy
3:35 PM 46.4 °F 39.5 °F 17.6 °F 32% 29.91 in 10.0 mi SE 17.3 mph 27.6 mph N/A   Mostly Cloudy
4:15 PM 46.4 °F 39.0 °F 17.6 °F 32% 29.90 in 10.0 mi SSE 19.6 mph 25.3 mph N/A   Scattered Clouds
4:35 PM 46.4 °F 39.5 °F 17.6 °F 32% 29.89 in 10.0 mi SE 17.3 mph 24.2 mph N/A   Scattered Clouds
4:55 PM 46.4 °F 39.5 °F 15.8 °F 29% 29.89 in 10.0 mi SSE 17.3 mph 24.2 mph N/A   Overcast
5:15 PM 46.4 °F 39.2 °F 15.8 °F 29% 29.88 in 10.0 mi SE 18.4 mph 27.6 mph N/A   Mostly Cloudy
5:35 PM 46.4 °F 38.3 °F 17.6 °F 32% 29.87 in 10.0 mi SE 23.0 mph - N/A   Mostly Cloudy
5:55 PM 44.6 °F 35.7 °F 17.6 °F 34% 29.86 in 10.0 mi SE 24.2 mph 28.8 mph N/A   Overcast
6:15 PM 44.6 °F 37.4 °F 15.8 °F 31% 29.86 in 10.0 mi SE 16.1 mph - N/A   Scattered Clouds
6:35 PM 44.6 °F 37.8 °F 17.6 °F 34% 29.85 in 10.0 mi SE 15.0 mph - N/A   Partly Cloudy
6:55 PM 42.8 °F 34.8 °F 17.6 °F 36% 29.85 in 10.0 mi SE 17.3 mph 25.3 mph N/A   Clear
7:15 PM 42.8 °F 35.4 °F 17.6 °F 36% 29.84 in 10.0 mi SSE 15.0 mph - N/A   Clear
7:55 PM 41.0 °F 33.9 °F 17.6 °F 39% 29.83 in 10.0 mi SSE 12.7 mph - N/A   Clear
8:15 PM 41.0 °F 33.1 °F 15.8 °F 36% 29.83 in 10.0 mi SSE 15.0 mph - N/A   Clear
8:35 PM 39.2 °F 30.5 °F 15.8 °F 39% 29.82 in 10.0 mi SSE 16.1 mph - N/A   Clear
8:55 PM 39.2 °F 30.5 °F 15.8 °F 39% 29.81 in 10.0 mi SSE 16.1 mph - N/A   Clear
9:15 PM 39.2 °F 30.5 °F 15.8 °F 39% 29.80 in 10.0 mi SSE 16.1 mph - N/A   Clear
9:35 PM 39.2 °F 30.5 °F 17.6 °F 42% 29.80 in 10.0 mi SSE 16.1 mph - N/A   Clear
9:55 PM 39.2 °F 30.8 °F 17.6 °F 42% 29.80 in 10.0 mi SSE 15.0 mph 21.9 mph N/A   Clear
10:15 PM 39.2 °F 30.5 °F 17.6 °F 42% 29.79 in 10.0 mi SSE 16.1 mph 21.9 mph N/A   Clear
10:35 PM 39.2 °F 29.6 °F 17.6 °F 42% 29.78 in 10.0 mi SSE 19.6 mph - N/A   Clear
10:55 PM 39.2 °F 29.8 °F 17.6 °F 42% 29.77 in 10.0 mi SSE 18.4 mph 27.6 mph N/A   Clear
11:15 PM 39.2 °F 29.6 °F 19.4 °F 45% 29.77 in 10.0 mi SSE 19.6 mph 27.6 mph N/A   Clear
11:35 PM 39.2 °F 30.2 °F 17.6 °F 42% 29.77 in 10.0 mi South 17.3 mph 24.2 mph N/A   Clear
11:55 PM 39.2 °F 30.5 °F 17.6 °F 42% 29.76 in 10.0 mi SSE 16.1 mph 26.5 mph N/A   Partly Cloudy